Zurück zum Katalog

STARLINK-35355

AktivKommunikationVLEO
NORAD 66448·PAYLOAD·🇺🇸 United States

Gestartet Nov 11, 2025 von Cape Canaveral Space Force Station

Loading…

Nächste Überflüge (nächste 24 Stunden)

TLE

AktuellSource: CelesTrak SupGP

Epoche: Sep 15, 2026, 03:49 UTC

1 66448C 25259AC  26258.15951389 -.00008740  00000+0 -31626-3 0  2584
2 66448  43.0000 284.6731 0001386 273.4865 103.7485 15.27614077    10

Verfolge STARLINK-35355 in Echtzeit mit AllMySat

Download on the App Store